Weather History for EBCV - April, 2013

Change the Weather History Date:

Wednesday, April 3, 2013

  Actual Average Record
Temperature  
Mean Temperature 36 °F -  
Max Temperature 44 °F 53 °F 68 °F (2014)
Min Temperature 28 °F 42 °F 28 °F (2013)
Degree Days  
Heating Degree Days 29    
Moisture  
Dew Point 26 °F    
Average Humidity 66    
Maximum Humidity 81    
Minimum Humidity 43    
Precipitation  
Precipitation 0.00 in - - ()
Sea Level Pressure  
Sea Level Pressure 29.92 in    
Wind  
Wind Speed 10 mph ()    
Max Wind Speed 18 mph    
Max Gust Speed -    
Visibility 6.2 miles    
Events Rain    
Averages and records for this station are not official NWS values.
T = Trace of Precipitation, MM = Missing Value Source: Averaged Metar Reports

Daily Weather History Graph

Daily Weather History Graph

Search for Another Location

Airport or City:

Trip Planner

Search our weather history database for the weather conditions in past years. The results will help you decide how hot, cold, wet, or windy it might be!

Date:

Astronomy

Apr. 03, 2013 Rise Set
Actual Time 7:16 AM CEST 8:20 PM CEST
Civil Twilight 6:43 AM CEST 8:53 PM CEST
Nautical Twilight 6:02 AM CEST 9:34 PM CEST
Astronomical Twilight 5:19 AM CEST 10:17 PM CEST
Moon 3:25 AM CEST (4/3) 12:35 PM CEST (4/3)
Length of Visible Light 14h 10m
Length of Day
13h 04m
Waning Gibbous, 47% of the Moon is Illuminated
Apr 3
Waning Gibbous
Apr 10
New
Apr 18
First Quarter
Apr 25
Full
May 2
Last Quarter

Hourly Weather History & Observations

Time (CEST) Temp. Windchill Dew Point Humidity Pressure Visibility Wind Dir Wind Speed Gust Speed Precip Events Conditions
12:25 AM 33.8 °F 27.7 °F 23.0 °F 65% 29.92 in 6.2 mi NNE 6.9 mph - N/A   Clear
1:25 AM 33.8 °F 27.7 °F 23.0 °F 65% 29.92 in 6.2 mi NNE 6.9 mph - N/A   Clear
2:00 AM 33 °F - 22 °F 54% 29.94 in 13 mi NNE 8.9 mph - -  
2:25 AM 32.0 °F 25.6 °F 23.0 °F 69% 29.92 in 6.2 mi NNE 6.9 mph - N/A   Clear
3:25 AM 32.0 °F 25.6 °F 23.0 °F 69% 29.92 in 6.2 mi NNE 6.9 mph - N/A   Clear
4:25 AM 30.2 °F 22.6 °F 23.0 °F 75% 29.92 in 6.2 mi NNE 8.1 mph - N/A   Clear
5:00 AM 30 °F - 23 °F 67% 29.96 in 7 mi NNE 6.7 mph - -  
5:25 AM 30.2 °F 21.9 °F 23.0 °F 75% 29.92 in 6.2 mi NE 9.2 mph - N/A   Clear
6:25 AM 30.2 °F 21.3 °F 23.0 °F 75% 29.92 in 6.2 mi NE 10.4 mph - N/A   Clear
7:25 AM 28.4 °F 19.7 °F 23.0 °F 80% 29.92 in 6.2 mi NNE 9.2 mph - N/A   Clear
8:00 AM 29 °F - 22 °F 68% 29.96 in 6 mi NE 8.9 mph - -  
8:25 AM 30.2 °F 21.9 °F 23.0 °F 75% 29.95 in 6.2 mi NE 9.2 mph - N/A   Clear
9:25 AM 32.0 °F 23.0 °F 24.8 °F 75% 29.95 in 6.2 mi NE 11.5 mph - N/A   Clear
10:25 AM 35.6 °F 26.2 °F 24.8 °F 65% 29.95 in 6.2 mi ENE 15.0 mph - N/A   Partly Cloudy
11:00 AM 36 °F - 26 °F 54% 29.96 in 6 mi ENE 17.9 mph - -   Partly Cloudy
11:25 AM 37.4 °F 28.2 °F 26.6 °F 65% 29.95 in 6.2 mi ENE 16.1 mph - N/A   Mostly Cloudy
12:25 PM 37.4 °F 28.9 °F 26.6 °F 65% 29.95 in 6.2 mi ENE 13.8 mph - N/A   Mostly Cloudy
1:25 PM 39.2 °F 30.5 °F 26.6 °F 61% 29.92 in 6.2 mi ENE 16.1 mph - N/A   Mostly Cloudy
2:00 PM 40 °F - 28 °F 51% 29.95 in 8 mi ENE 15.7 mph - -   Mostly Cloudy
2:25 PM 42.8 °F 34.8 °F 28.4 °F 57% 29.92 in 6.2 mi ENE 17.3 mph - N/A   Mostly Cloudy
3:25 PM 44.6 °F 37.2 °F 28.4 °F 53% 29.92 in 6.2 mi ENE 17.3 mph - N/A   Mostly Cloudy
4:25 PM 42.8 °F 35.1 °F 28.4 °F 57% 29.89 in 6.2 mi ENE 16.1 mph - N/A   Mostly Cloudy
5:00 PM 43 °F - 28 °F 43% 29.92 in 7 mi East 15.7 mph - -   Mostly Cloudy
5:25 PM 42.8 °F 35.4 °F 26.6 °F 53% 29.89 in 6.2 mi East 15.0 mph - N/A   Mostly Cloudy
6:25 PM 41.0 °F 32.5 °F 28.4 °F 61% 29.89 in 6.2 mi East 17.3 mph - N/A   Mostly Cloudy
7:25 PM 41.0 °F 33.1 °F 26.6 °F 57% 29.89 in 6.2 mi ENE 15.0 mph - N/A   Overcast
8:00 PM 40 °F - 28 °F 51% 29.92 in 7 mi East 15.7 mph - -   Partly Cloudy
8:25 PM 37.4 °F 30.3 °F 28.4 °F 70% 29.92 in 5.6 mi East 10.4 mph - N/A   Mostly Cloudy
9:25 PM 37.4 °F 28.9 °F 28.4 °F 70% 29.92 in 5.6 mi East 13.8 mph - N/A   Mostly Cloudy
9:51 PM 37.4 °F 28.2 °F 30.2 °F 75% 29.92 in 4.3 mi ENE 16.1 mph - N/A   Light Drizzle
10:25 PM 35.6 °F 27.1 °F 30.2 °F 81% 29.92 in 4.3 mi NE 12.7 mph - N/A   Overcast
11:00 PM 36 °F - 29 °F 69% 29.92 in 4 mi NE 8.9 mph - - Rain Rain
11:25 PM 35.6 °F 29.2 °F 28.4 °F 75% 29.89 in 4.3 mi NE 8.1 mph - N/A   Mostly Cloudy
11:28 PM 35.6 °F 29.2 °F 28.4 °F 75% 29.89 in 5.0 mi NE 8.1 mph - N/A   Mostly Cloudy
11:34 PM 35.6 °F 29.2 °F 28.4 °F 75% 29.89 in 4.3 mi NE 8.1 mph - N/A   Mostly Cloudy